Weather History for K2I0 - November, 2012

Change the Weather History Date:

Friday, November 9, 2012

  Actual Average (KOWB) Record (KOWB)
Temperature  
Mean Temperature 52 °F -  
Max Temperature 69 °F 61 °F 77 °F (1942)
Min Temperature 36 °F 41 °F 17 °F (1991)
Degree Days  
Heating Degree Days 12    
Growing Degree Days 2 (Base 50)    
Moisture  
Dew Point 41 °F    
Average Humidity 67    
Maximum Humidity 99    
Minimum Humidity 38    
Precipitation  
Precipitation 0.00 in - - ()
Sea Level Pressure  
Sea Level Pressure 30.16 in    
Wind  
Wind Speed 5 mph ()    
Max Wind Speed 13 mph    
Max Gust Speed 17 mph    
Visibility 8.5 miles    
Events      
Averages and records for this station are not official NWS values.
T = Trace of Precipitation, MM = Missing Value Source: Averaged Metar Reports

Daily Weather History Graph

Daily Weather History Graph

Search for Another Location

Airport or City:

Trip Planner

Search our weather history database for the weather conditions in past years. The results will help you decide how hot, cold, wet, or windy it might be!

Date:

Astronomy

Nov. 09, 2012 Rise Set
Actual Time 6:23 AM CST 4:43 PM CST
Civil Twilight 5:55 AM CST 5:10 PM CST
Nautical Twilight 5:24 AM CST 5:42 PM CST
Astronomical Twilight 4:53 AM CST 6:12 PM CST
Moon 1:27 AM CST (11/9) 1:51 PM CST (11/9)
Length of Visible Light 11h 15m
Length of Day
10h 20m
Waning Crescent, 23% of the Moon is Illuminated
Nov 9
Waning Crescent
Nov 13
New
Nov 20
First Quarter
Nov 28
Full
Dec 6
Last Quarter

Hourly Weather History & Observations

Time (CST) Temp. Windchill Dew Point Humidity Pressure Visibility Wind Dir Wind Speed Gust Speed Precip Events Conditions
12:15 AM 36.7 °F - 35.8 °F 97% 30.17 in 7.0 mi Calm Calm - N/A   Clear
12:35 AM 37.2 °F - 36.9 °F 99% 30.17 in 7.0 mi Calm Calm - N/A   Clear
12:55 AM 36.5 °F - 35.6 °F 97% 30.17 in 7.0 mi Calm Calm - N/A   Clear
1:15 AM 36.0 °F - 35.4 °F 98% 30.17 in 5.0 mi Calm Calm - N/A   Clear
1:35 AM 37.6 °F - 37.0 °F 98% 30.17 in 5.0 mi Calm Calm - N/A   Clear
1:55 AM 38.1 °F 35.7 °F 37.6 °F 98% 30.17 in 5.0 mi South 3.5 mph - N/A   Clear
2:15 AM 39.0 °F 34.8 °F 37.9 °F 96% 30.18 in 7.0 mi South 5.8 mph - N/A   Clear
2:35 AM 39.6 °F 36.3 °F 38.1 °F 95% 30.19 in 7.0 mi South 4.6 mph - N/A   Clear
2:55 AM 39.6 °F 35.4 °F 37.9 °F 94% 30.20 in 7.0 mi South 5.8 mph - N/A   Clear
3:15 AM 39.2 °F 37.0 °F 37.8 °F 95% 30.20 in 7.0 mi South 3.5 mph - N/A   Clear
3:35 AM 38.3 °F - 36.9 °F 95% 30.21 in 5.0 mi Calm Calm - N/A   Clear
3:55 AM 38.5 °F - 37.4 °F 96% 30.21 in 5.0 mi Calm Calm - N/A   Clear
4:15 AM 36.5 °F - 35.8 °F 97% 30.21 in 5.0 mi Calm Calm - N/A   Clear
4:35 AM 37.2 °F - 36.5 °F 97% 30.22 in 5.0 mi Calm Calm - N/A   Clear
4:55 AM 36.1 °F - 35.6 °F 98% 30.22 in 5.0 mi Calm Calm - N/A   Clear
5:15 AM 37.6 °F 33.1 °F 37.2 °F 99% 30.22 in 5.0 mi South 5.8 mph - N/A   Clear
5:35 AM 38.5 °F 34.1 °F 37.4 °F 96% 30.22 in 5.0 mi South 5.8 mph - N/A   Clear
5:55 AM 39.2 °F 33.6 °F 38.1 °F 96% 30.21 in 5.0 mi South 8.1 mph - N/A   Clear
6:15 AM 39.4 °F 35.2 °F 38.1 °F 95% 30.22 in 5.0 mi South 5.8 mph - N/A   Clear
6:35 AM 39.7 °F 35.6 °F 38.3 °F 95% 30.22 in 5.0 mi South 5.8 mph - N/A   Clear
6:55 AM 40.5 °F 35.8 °F 38.8 °F 94% 30.22 in 5.0 mi South 6.9 mph - N/A   Clear
7:15 AM 41.9 °F 38.2 °F 39.7 °F 92% 30.22 in 5.0 mi South 5.8 mph - N/A   Clear
7:35 AM 43.3 °F 39.9 °F 40.6 °F 90% 30.23 in 7.0 mi South 5.8 mph - N/A   Clear
7:55 AM 45.1 °F 40.8 °F 41.5 °F 87% 30.23 in 7.0 mi South 8.1 mph - N/A   Clear
8:15 AM 46.6 °F - 41.9 °F 84% 30.23 in 7.0 mi South 8.1 mph - N/A   Clear
8:55 AM 50.2 °F - 43.5 °F 78% 30.24 in 10.0 mi South 4.6 mph - N/A   Clear
9:15 AM 53.1 °F - 44.1 °F 71% 30.23 in 10.0 mi SSW 8.1 mph - N/A   Clear
9:35 AM 54.7 °F - 44.2 °F 68% 30.23 in 10.0 mi South 9.2 mph - N/A   Clear
9:55 AM 57.4 °F - 45.5 °F 65% 30.23 in 10.0 mi South 5.8 mph - N/A   Clear
10:15 AM 59.9 °F - 44.8 °F 57% 30.22 in 10.0 mi South 8.1 mph - N/A   Scattered Clouds
10:55 AM 63.3 °F - 44.1 °F 49% 30.21 in 10.0 mi SSW 10.4 mph - N/A   Clear
11:15 AM 63.3 °F - 43.3 °F 48% 30.19 in 10.0 mi SSW 11.5 mph 17.3 mph N/A   Clear
11:35 AM 64.9 °F - 43.9 °F 46% 30.18 in 10.0 mi South 9.2 mph 17.3 mph N/A   Clear
11:55 AM 65.3 °F - 43.3 °F 45% 30.17 in 10.0 mi SW 12.7 mph - N/A   Clear
12:15 PM 66.2 °F - 44.1 °F 45% 30.16 in 10.0 mi SSW 10.4 mph - N/A   Clear
12:35 PM 65.3 °F - 43.7 °F 46% 30.15 in 10.0 mi SSW 6.9 mph - N/A   Clear
12:55 PM 66.7 °F - 44.4 °F 44% 30.15 in 10.0 mi South 8.1 mph - N/A   Clear
1:15 PM 67.5 °F - 44.2 °F 43% 30.14 in 10.0 mi South 9.2 mph - N/A   Clear
1:35 PM 68.9 °F - 42.4 °F 38% 30.13 in 10.0 mi SSW 9.2 mph - N/A   Clear
1:55 PM 68.7 °F - 42.8 °F 39% 30.12 in 10.0 mi South 9.2 mph - N/A   Clear
2:15 PM 69.3 °F - 42.6 °F 38% 30.11 in 10.0 mi South 10.4 mph - N/A   Clear
2:35 PM 68.4 °F - 42.3 °F 39% 30.11 in 10.0 mi South 10.4 mph - N/A   Clear
2:55 PM 69.1 °F - 42.8 °F 39% 30.11 in 10.0 mi South 11.5 mph - N/A   Clear
3:15 PM 68.9 °F - 42.1 °F 38% 30.10 in 10.0 mi SSW 11.5 mph 17.3 mph N/A   Clear
3:35 PM 67.8 °F - 43.0 °F 41% 30.10 in 10.0 mi South 8.1 mph - N/A   Clear
3:55 PM 67.1 °F - 43.0 °F 42% 30.10 in 10.0 mi South 9.2 mph - N/A   Clear
4:15 PM 66.2 °F - 43.0 °F 43% 30.10 in 10.0 mi South 5.8 mph - N/A   Clear
4:35 PM 65.1 °F - 42.8 °F 44% 30.10 in 10.0 mi South 5.8 mph - N/A   Clear
4:55 PM 63.9 °F - 42.4 °F 46% 30.10 in 10.0 mi South 5.8 mph - N/A   Clear
5:15 PM 63.7 °F - 42.1 °F 45% 30.10 in 10.0 mi South 4.6 mph - N/A   Clear
5:35 PM 62.8 °F - 42.1 °F 47% 30.11 in 10.0 mi South 4.6 mph - N/A   Clear
5:55 PM 61.2 °F - 42.1 °F 50% 30.11 in 10.0 mi South 5.8 mph - N/A   Clear
6:15 PM 60.6 °F - 42.8 °F 52% 30.10 in 10.0 mi South 8.1 mph - N/A   Clear
6:35 PM 60.8 °F - 43.0 °F 52% 30.10 in 10.0 mi South 6.9 mph - N/A   Clear
6:55 PM 60.1 °F - 43.3 °F 54% 30.10 in 10.0 mi South 6.9 mph - N/A   Clear
7:35 PM 58.5 °F - 43.5 °F 58% 30.10 in 10.0 mi South 6.9 mph - N/A   Clear
7:55 PM 57.9 °F - 43.7 °F 59% 30.10 in 10.0 mi South 5.8 mph - N/A   Clear
8:15 PM 57.6 °F - 43.9 °F 60% 30.11 in 10.0 mi South 6.9 mph - N/A   Clear
8:35 PM 57.4 °F - 43.9 °F 61% 30.11 in 10.0 mi SSW 6.9 mph - N/A   Clear
8:55 PM 58.5 °F - 43.7 °F 58% 30.11 in 10.0 mi SSW 8.1 mph - N/A   Clear
9:15 PM 58.6 °F - 43.7 °F 58% 30.12 in 10.0 mi SSW 10.4 mph - N/A   Clear
9:35 PM 59.0 °F - 43.3 °F 56% 30.12 in 10.0 mi South 9.2 mph - N/A   Clear
9:55 PM 58.5 °F - 43.2 °F 57% 30.12 in 10.0 mi SSW 10.4 mph - N/A   Clear
10:15 PM 57.7 °F - 43.0 °F 58% 30.11 in 10.0 mi SSW 8.1 mph - N/A   Clear
10:35 PM 57.7 °F - 43.0 °F 58% 30.12 in 10.0 mi SSW 9.2 mph - N/A   Clear
10:55 PM 58.3 °F - 43.0 °F 57% 30.11 in 10.0 mi SSW 10.4 mph - N/A   Clear
11:15 PM 58.6 °F - 42.8 °F 56% 30.11 in 10.0 mi SSW 10.4 mph 16.1 mph N/A   Clear
11:35 PM 58.8 °F - 42.8 °F 55% 30.12 in 10.0 mi SSW 10.4 mph - N/A   Clear
11:55 PM 58.8 °F - 42.4 °F 55% 30.12 in 10.0 mi SSW 9.2 mph - N/A   Clear